NEA1403 KCLE-KLIT

Flight info

Callsign NEA1403
Flight time 2h 2m
Altitude 38000
Route CAVVS5 APE EASEL WLSUN ZESAM LIT
Aircraft A319/M-SDE3FGHIRWY/LB1

Departure

Time 2026-05-08 00:38
Airport Cleveland Hopkins International Airport (KCLE)

Arrival

Time 2026-05-08 02:40
Airport Bill & Hillary Clinton National Airport/Adams Field (KLIT)
Time Latitude Longitude Altitude Speed Heading
2026-05-07 23:59 41.40762 -81.84263 759 ft 0 kts 129°
2026-05-08 00:30 41.40774 -81.84283 759 ft 4 kts 123°
2026-05-08 00:30 41.40786 -81.84314 759 ft 4 kts 105°
2026-05-08 00:30 41.40789 -81.84333 759 ft 0 kts 99°
2026-05-08 00:33 41.40787 -81.84330 759 ft 0 kts 119°
2026-05-08 00:33 41.40780 -81.84328 759 ft 5 kts 161°
2026-05-08 00:33 41.40767 -81.84340 761 ft 1 kts 241°
2026-05-08 00:34 41.40764 -81.84347 760 ft 0 kts 241°
2026-05-08 00:34 41.40760 -81.84357 761 ft 5 kts 247°
2026-05-08 00:35 41.40802 -81.84431 761 ft 15 kts 344°
2026-05-08 00:35 41.40907 -81.84401 761 ft 17 kts 44°
2026-05-08 00:35 41.41015 -81.84378 761 ft 17 kts 360°
2026-05-08 00:35 41.41144 -81.84379 761 ft 20 kts 360°
2026-05-08 00:36 41.41274 -81.84349 761 ft 19 kts
2026-05-08 00:36 41.41373 -81.84228 760 ft 21 kts 50°
2026-05-08 00:36 41.41484 -81.84167 760 ft 20 kts 325°
2026-05-08 00:36 41.41491 -81.84273 759 ft 14 kts 228°
2026-05-08 00:37 41.41373 -81.84457 760 ft 49 kts 230°
2026-05-08 00:37 41.41025 -81.85008 761 ft 105 kts 230°
2026-05-08 00:37 41.40439 -81.85937 787 ft 153 kts 230°
2026-05-08 00:38 41.39011 -81.88085 2019 ft 160 kts 232°
2026-05-08 00:38 41.38110 -81.89012 2601 ft 175 kts 209°
2026-05-08 00:38 41.36816 -81.89354 2925 ft 205 kts 186°
2026-05-08 00:38 41.35334 -81.89671 3322 ft 227 kts 201°
2026-05-08 00:39 41.33770 -81.90405 3861 ft 250 kts 205°
2026-05-08 00:39 41.32106 -81.91279 4708 ft 261 kts 205°
2026-05-08 00:39 41.30397 -81.92151 5764 ft 265 kts 205°
2026-05-08 00:39 41.28656 -81.92991 6801 ft 268 kts 205°
2026-05-08 00:40 41.26885 -81.93807 7780 ft 271 kts 204°
2026-05-08 00:40 41.25085 -81.94609 8772 ft 275 kts 204°
2026-05-08 00:40 41.23252 -81.95404 9754 ft 279 kts 204°
2026-05-08 00:40 41.21385 -81.96209 10444 ft 292 kts 204°
2026-05-08 00:41 41.19378 -81.97080 10818 ft 313 kts 204°
2026-05-08 00:41 41.17305 -81.98064 11511 ft 319 kts 207°
2026-05-08 00:41 41.15223 -81.99152 12320 ft 323 kts 209°
2026-05-08 00:41 41.13129 -82.00285 13155 ft 327 kts 210°
2026-05-08 00:42 41.11016 -82.01442 13966 ft 330 kts 210°
2026-05-08 00:42 41.08877 -82.02607 14659 ft 335 kts 210°
2026-05-08 00:42 41.06710 -82.03777 15324 ft 339 kts 210°
2026-05-08 00:42 41.04498 -82.04960 15994 ft 345 kts 210°
2026-05-08 00:43 41.02257 -82.06147 16671 ft 349 kts 210°
2026-05-08 00:43 40.99987 -82.07349 17354 ft 353 kts 210°
2026-05-08 00:43 40.97690 -82.08558 18038 ft 358 kts 210°
2026-05-08 00:43 40.95365 -82.09783 18668 ft 361 kts 210°
2026-05-08 00:44 40.93058 -82.11098 19323 ft 361 kts 213°
2026-05-08 00:44 40.90778 -82.12490 20025 ft 361 kts 214°
2026-05-08 00:44 40.88514 -82.13918 20725 ft 361 kts 215°
2026-05-08 00:44 40.86248 -82.15355 21389 ft 362 kts 216°
2026-05-08 00:45 40.83979 -82.16786 22116 ft 361 kts 216°
2026-05-08 00:45 40.81713 -82.18205 22811 ft 361 kts 216°
2026-05-08 00:45 40.79438 -82.19620 23495 ft 362 kts 217°
2026-05-08 00:45 40.77160 -82.21032 24030 ft 363 kts 217°
2026-05-08 00:46 40.74871 -82.22441 24552 ft 363 kts 217°
2026-05-08 00:46 40.72574 -82.23843 25079 ft 364 kts 217°
2026-05-08 00:46 40.70274 -82.25251 25584 ft 364 kts 217°
2026-05-08 00:46 40.67975 -82.26659 26086 ft 365 kts 217°
2026-05-08 00:47 40.65666 -82.28070 26591 ft 366 kts 217°
2026-05-08 00:47 40.63355 -82.29486 27015 ft 367 kts 217°
2026-05-08 00:47 40.61040 -82.30911 27496 ft 368 kts 218°
2026-05-08 00:47 40.58718 -82.32340 27974 ft 369 kts 218°
2026-05-08 00:48 40.56384 -82.33773 28437 ft 371 kts 218°
2026-05-08 00:48 40.54039 -82.35207 28900 ft 373 kts 218°
2026-05-08 00:48 40.51676 -82.36647 29339 ft 375 kts 218°
2026-05-08 00:48 40.49303 -82.38090 29782 ft 377 kts 218°
2026-05-08 00:49 40.46916 -82.39535 30192 ft 379 kts 217°
2026-05-08 00:49 40.44511 -82.40997 30501 ft 382 kts 217°
2026-05-08 00:49 40.42093 -82.42473 30803 ft 385 kts 217°
2026-05-08 00:49 40.39666 -82.43962 31107 ft 387 kts 218°
2026-05-08 00:50 40.37213 -82.45462 31407 ft 390 kts 217°
2026-05-08 00:50 40.34744 -82.46966 31706 ft 393 kts 217°
2026-05-08 00:50 40.32255 -82.48478 32007 ft 396 kts 217°
2026-05-08 00:50 40.29745 -82.49992 32323 ft 397 kts 217°
2026-05-08 00:51 40.27233 -82.51502 32734 ft 397 kts 217°
2026-05-08 00:51 40.24726 -82.53012 33134 ft 397 kts 217°
2026-05-08 00:51 40.22222 -82.54528 33483 ft 397 kts 218°
2026-05-08 00:51 40.19716 -82.56055 33849 ft 395 kts 220°
2026-05-08 00:52 40.17428 -82.57908 34199 ft 380 kts 229°
2026-05-08 00:52 40.15495 -82.60180 34522 ft 368 kts 237°
2026-05-08 00:52 40.13957 -82.62730 34836 ft 359 kts 245°
2026-05-08 00:52 40.12761 -82.65608 35150 ft 352 kts 252°
2026-05-08 00:53 40.11773 -82.68538 35453 ft 353 kts 252°
2026-05-08 00:53 40.10769 -82.71465 35744 ft 354 kts 252°
2026-05-08 00:53 40.09756 -82.74397 36045 ft 354 kts 251°
2026-05-08 00:53 40.08735 -82.77333 36332 ft 355 kts 251°
2026-05-08 00:54 40.07709 -82.80264 36604 ft 356 kts 251°
2026-05-08 00:54 40.06681 -82.83206 36873 ft 357 kts 251°
2026-05-08 00:54 40.05655 -82.86161 37145 ft 357 kts 251°
2026-05-08 00:54 40.04631 -82.89117 37422 ft 358 kts 251°
2026-05-08 00:55 40.03603 -82.92075 37624 ft 358 kts 251°
2026-05-08 00:55 40.02572 -82.95028 37943 ft 357 kts 251°
2026-05-08 00:55 40.01546 -82.97961 38005 ft 354 kts 251°
2026-05-08 00:56 39.99857 -83.02802 38011 ft 352 kts 251°
2026-05-08 00:56 39.97833 -83.08611 38034 ft 351 kts 251°
2026-05-08 00:57 39.95789 -83.14442 38032 ft 351 kts 251°
2026-05-08 00:57 39.93751 -83.20230 38035 ft 351 kts 251°
2026-05-08 00:58 39.91716 -83.26008 38037 ft 351 kts 251°
2026-05-08 00:58 39.89679 -83.31788 38037 ft 351 kts 251°
2026-05-08 00:59 39.87639 -83.37570 38037 ft 351 kts 251°
2026-05-08 00:59 39.85597 -83.43346 38038 ft 351 kts 251°
2026-05-08 01:00 39.83549 -83.49120 38023 ft 351 kts 251°
2026-05-08 01:00 39.81501 -83.54866 38030 ft 350 kts 251°
2026-05-08 01:01 39.79460 -83.60593 38052 ft 348 kts 251°
2026-05-08 01:01 39.77419 -83.66306 38047 ft 348 kts 251°
2026-05-08 01:02 39.75388 -83.71996 38056 ft 347 kts 251°
2026-05-08 01:02 39.73350 -83.77684 38051 ft 347 kts 251°
2026-05-08 01:03 39.71311 -83.83373 38036 ft 347 kts 251°
2026-05-08 01:03 39.69262 -83.89048 38037 ft 347 kts 251°
2026-05-08 01:04 39.67218 -83.94721 38018 ft 347 kts 251°
2026-05-08 01:04 39.65173 -84.00405 38016 ft 348 kts 251°
2026-05-08 01:05 39.63118 -84.06096 38005 ft 345 kts 251°
2026-05-08 01:05 39.61087 -84.11684 38020 ft 345 kts 251°
2026-05-08 01:06 39.59046 -84.17301 38032 ft 344 kts 251°
2026-05-08 01:06 39.57011 -84.22912 38031 ft 344 kts 251°
2026-05-08 01:07 39.54967 -84.28514 38031 ft 344 kts 251°
2026-05-08 01:07 39.52907 -84.34147 38040 ft 344 kts 251°
2026-05-08 01:08 39.50861 -84.39737 38061 ft 343 kts 251°
2026-05-08 01:08 39.48819 -84.45324 38049 ft 343 kts 251°
2026-05-08 01:09 39.46772 -84.50900 38053 ft 343 kts 251°
2026-05-08 01:09 39.44722 -84.56472 38010 ft 342 kts 251°
2026-05-08 01:10 39.42676 -84.62019 38036 ft 340 kts 251°
2026-05-08 01:10 39.40637 -84.67529 38045 ft 339 kts 251°
2026-05-08 01:11 39.38605 -84.73021 38049 ft 338 kts 251°
2026-05-08 01:11 39.36575 -84.78499 38062 ft 338 kts 251°
2026-05-08 01:12 39.34544 -84.83962 38055 ft 337 kts 251°
2026-05-08 01:12 39.32498 -84.89455 38047 ft 337 kts 251°
2026-05-08 01:13 39.30479 -84.94873 38044 ft 337 kts 251°
2026-05-08 01:13 39.28436 -85.00357 38039 ft 337 kts 251°
2026-05-08 01:14 39.26410 -85.05768 38035 ft 337 kts 251°
2026-05-08 01:14 39.24368 -85.11215 37991 ft 336 kts 251°
2026-05-08 01:15 39.22340 -85.16623 38028 ft 335 kts 251°
2026-05-08 01:15 39.20317 -85.22024 38036 ft 334 kts 251°
2026-05-08 01:16 39.18287 -85.27408 38043 ft 334 kts 251°
2026-05-08 01:16 39.16254 -85.32778 38043 ft 333 kts 251°
2026-05-08 01:17 39.14222 -85.38145 38040 ft 333 kts 251°
2026-05-08 01:17 39.12193 -85.43512 38045 ft 333 kts 251°
2026-05-08 01:18 39.10163 -85.48873 38045 ft 333 kts 251°
2026-05-08 01:18 39.08124 -85.54234 38047 ft 334 kts 251°
2026-05-08 01:19 39.06078 -85.59599 38043 ft 334 kts 251°
2026-05-08 01:19 39.04021 -85.64961 37973 ft 334 kts 251°
2026-05-08 01:20 39.01965 -85.70312 38028 ft 335 kts 250°
2026-05-08 01:20 38.99294 -85.75336 38038 ft 342 kts 243°
2026-05-08 01:21 38.96471 -85.80259 38044 ft 342 kts 243°
2026-05-08 01:21 38.93663 -85.85174 38043 ft 341 kts 243°
2026-05-08 01:22 38.90854 -85.90087 38043 ft 341 kts 243°
2026-05-08 01:22 38.88041 -85.94985 38042 ft 341 kts 243°
2026-05-08 01:23 38.85223 -85.99885 38048 ft 341 kts 243°
2026-05-08 01:23 38.82400 -86.04781 38007 ft 342 kts 243°
2026-05-08 01:24 38.79580 -86.09683 38013 ft 342 kts 243°
2026-05-08 01:24 38.76758 -86.14583 38027 ft 342 kts 243°
2026-05-08 01:25 38.73931 -86.19478 38020 ft 342 kts 243°
2026-05-08 01:25 38.71094 -86.24371 38026 ft 342 kts 243°
2026-05-08 01:26 38.68281 -86.29227 38040 ft 342 kts 243°
2026-05-08 01:26 38.65419 -86.34153 38050 ft 343 kts 243°
2026-05-08 01:27 38.62571 -86.39037 38063 ft 343 kts 243°
2026-05-08 01:27 38.59723 -86.43921 38007 ft 342 kts 243°
2026-05-08 01:28 38.56889 -86.48770 38034 ft 340 kts 243°
2026-05-08 01:28 38.54060 -86.53605 38049 ft 339 kts 243°
2026-05-08 01:29 38.51241 -86.58439 38058 ft 339 kts 243°
2026-05-08 01:29 38.48410 -86.63268 38054 ft 340 kts 243°
2026-05-08 01:30 38.45579 -86.68091 38051 ft 340 kts 243°
2026-05-08 01:30 38.42745 -86.72913 38054 ft 339 kts 243°
2026-05-08 01:31 38.39934 -86.77699 38050 ft 339 kts 243°
2026-05-08 01:31 38.37080 -86.82540 38057 ft 339 kts 243°
2026-05-08 01:32 38.34234 -86.87344 38062 ft 340 kts 243°
2026-05-08 01:32 38.31392 -86.92149 38062 ft 340 kts 243°
2026-05-08 01:33 38.29029 -86.96143 38045 ft 340 kts 243°
2026-05-08 01:33 38.26179 -87.00943 38046 ft 340 kts 243°
2026-05-08 01:34 38.23322 -87.05752 38052 ft 341 kts 243°
2026-05-08 01:34 38.20460 -87.10562 38057 ft 341 kts 243°
2026-05-08 01:35 38.17598 -87.15368 38060 ft 341 kts 242°
2026-05-08 01:35 38.14735 -87.20172 38038 ft 339 kts 243°
2026-05-08 01:36 38.11902 -87.24925 38058 ft 337 kts 243°
2026-05-08 01:36 38.09071 -87.29658 38070 ft 336 kts 243°
2026-05-08 01:37 38.06243 -87.34378 38068 ft 336 kts 243°
2026-05-08 01:37 38.03414 -87.39098 38069 ft 336 kts 243°
2026-05-08 01:38 38.00577 -87.43816 38066 ft 336 kts 243°
2026-05-08 01:38 37.97739 -87.48532 38067 ft 337 kts 243°
2026-05-08 01:39 37.94892 -87.53249 38074 ft 337 kts 243°
2026-05-08 01:39 37.92044 -87.57960 38037 ft 334 kts 243°
2026-05-08 01:40 37.89233 -87.62605 38065 ft 331 kts 243°
2026-05-08 01:40 37.86434 -87.67234 38077 ft 331 kts 243°
2026-05-08 01:41 37.83624 -87.71881 38090 ft 330 kts 243°
2026-05-08 01:41 37.80833 -87.76494 38083 ft 330 kts 243°
2026-05-08 01:42 37.78049 -87.81071 38081 ft 331 kts 243°
2026-05-08 01:42 37.75236 -87.85680 38075 ft 331 kts 243°
2026-05-08 01:43 37.72424 -87.90288 38071 ft 331 kts 243°
2026-05-08 01:43 37.69599 -87.94931 37998 ft 331 kts 243°
2026-05-08 01:44 37.66806 -87.99506 38056 ft 328 kts 243°
2026-05-08 01:44 37.64013 -88.04058 38067 ft 328 kts 243°
2026-05-08 01:45 37.61224 -88.08597 38073 ft 327 kts 243°
2026-05-08 01:45 37.58443 -88.13130 38066 ft 327 kts 243°
2026-05-08 01:46 37.55573 -88.17599 38070 ft 329 kts 241°
2026-05-08 01:46 37.52622 -88.22008 38073 ft 329 kts 241°
2026-05-08 01:47 37.49675 -88.26419 38061 ft 329 kts 241°
2026-05-08 01:47 37.46735 -88.30838 38067 ft 329 kts 241°
2026-05-08 01:48 37.42334 -88.37452 38043 ft 328 kts 241°
2026-05-08 01:48 37.39399 -88.41852 38053 ft 328 kts 241°
2026-05-08 01:49 37.36469 -88.46248 38060 ft 328 kts 241°
2026-05-08 01:49 37.33543 -88.50641 38046 ft 328 kts 241°
2026-05-08 01:50 37.30614 -88.55024 38055 ft 327 kts 241°
2026-05-08 01:50 37.27683 -88.59398 38055 ft 327 kts 241°
2026-05-08 01:51 37.24750 -88.63773 38062 ft 327 kts 241°
2026-05-08 01:51 37.21814 -88.68141 38039 ft 327 kts 241°
2026-05-08 01:52 37.18885 -88.72503 38059 ft 327 kts 241°
2026-05-08 01:52 37.15961 -88.76855 38069 ft 326 kts 241°
2026-05-08 01:53 37.13036 -88.81203 38073 ft 326 kts 241°
2026-05-08 01:53 37.10106 -88.85542 38050 ft 326 kts 240°
2026-05-08 01:54 37.07175 -88.89871 38062 ft 326 kts 240°
2026-05-08 01:54 37.04247 -88.94191 38068 ft 325 kts 240°
2026-05-08 01:55 37.01324 -88.98509 38073 ft 325 kts 240°
2026-05-08 01:55 36.98397 -89.02818 38028 ft 325 kts 240°
2026-05-08 01:56 36.95473 -89.07116 38069 ft 324 kts 240°
2026-05-08 01:56 36.92556 -89.11405 38081 ft 323 kts 240°
2026-05-08 01:57 36.89647 -89.15678 38082 ft 323 kts 240°
2026-05-08 01:57 36.86744 -89.19950 38084 ft 322 kts 240°
2026-05-08 01:58 36.83835 -89.24211 38069 ft 322 kts 240°
2026-05-08 01:58 36.80923 -89.28466 38062 ft 322 kts 240°
2026-05-08 01:59 36.78009 -89.32718 38064 ft 322 kts 240°
2026-05-08 01:59 36.75094 -89.36969 38066 ft 322 kts 240°
2026-05-08 02:00 36.72184 -89.41217 38039 ft 322 kts 240°
2026-05-08 02:00 36.69275 -89.45454 38059 ft 321 kts 240°
2026-05-08 02:01 36.66367 -89.49680 38066 ft 321 kts 240°
2026-05-08 02:01 36.63459 -89.53896 38071 ft 321 kts 240°
2026-05-08 02:02 36.60553 -89.58111 38072 ft 321 kts 240°
2026-05-08 02:02 36.57645 -89.62323 38077 ft 321 kts 240°
2026-05-08 02:03 36.54741 -89.66526 38077 ft 320 kts 240°
2026-05-08 02:03 36.51831 -89.70722 38070 ft 320 kts 240°
2026-05-08 02:04 36.48926 -89.74917 38025 ft 320 kts 240°
2026-05-08 02:04 36.46022 -89.79105 38036 ft 320 kts 240°
2026-05-08 02:05 36.43114 -89.83291 38047 ft 320 kts 240°
2026-05-08 02:05 36.40205 -89.87471 38054 ft 320 kts 240°
2026-05-08 02:06 36.37293 -89.91642 38062 ft 320 kts 240°
2026-05-08 02:06 36.34380 -89.95820 38064 ft 320 kts 240°
2026-05-08 02:07 36.31465 -89.99996 38046 ft 320 kts 239°
2026-05-08 02:07 36.28545 -90.04171 38051 ft 321 kts 239°
2026-05-08 02:08 36.25625 -90.08343 38049 ft 321 kts 239°
2026-05-08 02:08 36.22697 -90.12518 38037 ft 321 kts 239°
2026-05-08 02:09 36.19764 -90.16695 38054 ft 321 kts 239°
2026-05-08 02:09 36.16834 -90.20866 38060 ft 321 kts 239°
2026-05-08 02:10 36.13891 -90.25025 37963 ft 322 kts 239°
2026-05-08 02:10 36.12434 -90.27116 37687 ft 320 kts 240°
2026-05-08 02:10 36.10990 -90.29215 37430 ft 320 kts 240°
2026-05-08 02:11 36.09553 -90.31319 37173 ft 320 kts 240°
2026-05-08 02:11 36.08119 -90.33429 36909 ft 321 kts 240°
2026-05-08 02:11 36.07169 -90.34829 36740 ft 321 kts 240°
2026-05-08 02:11 36.05732 -90.36946 36489 ft 322 kts 240°
2026-05-08 02:12 36.04291 -90.39064 36226 ft 323 kts 239°
2026-05-08 02:12 36.02846 -90.41188 36064 ft 324 kts 239°
2026-05-08 02:12 35.99941 -90.45445 36069 ft 325 kts 239°
2026-05-08 02:13 35.97027 -90.49700 36065 ft 325 kts 239°
2026-05-08 02:13 35.94111 -90.53952 36067 ft 324 kts 239°
2026-05-08 02:14 35.91177 -90.58232 36068 ft 324 kts 239°
2026-05-08 02:14 35.88259 -90.62477 36066 ft 324 kts 239°
2026-05-08 02:15 35.85343 -90.66723 36079 ft 325 kts 239°
2026-05-08 02:15 35.82422 -90.70965 36092 ft 324 kts 239°
2026-05-08 02:16 35.80964 -90.73083 35604 ft 327 kts 239°
2026-05-08 02:16 35.79477 -90.75255 34740 ft 335 kts 239°
2026-05-08 02:16 35.77965 -90.77458 34099 ft 337 kts 238°
2026-05-08 02:16 35.76454 -90.79640 33783 ft 330 kts 238°
2026-05-08 02:17 35.74980 -90.81738 33567 ft 318 kts 238°
2026-05-08 02:17 35.73553 -90.83757 33058 ft 308 kts 238°
2026-05-08 02:17 35.72149 -90.85727 32338 ft 305 kts 238°
2026-05-08 02:17 35.70751 -90.87675 31570 ft 303 kts 238°
2026-05-08 02:18 35.69349 -90.89614 30812 ft 303 kts 238°
2026-05-08 02:18 35.67945 -90.91543 30052 ft 303 kts 239°
2026-05-08 02:18 35.66547 -90.93486 29183 ft 301 kts 240°
2026-05-08 02:18 35.65297 -90.95572 27942 ft 308 kts 243°
2026-05-08 02:19 35.64058 -90.97775 26712 ft 319 kts 243°
2026-05-08 02:19 35.62802 -91.00054 25699 ft 324 kts 243°
2026-05-08 02:19 35.61532 -91.02361 24801 ft 327 kts 242°
2026-05-08 02:19 35.60249 -91.04684 23954 ft 330 kts 242°
2026-05-08 02:20 35.58953 -91.07019 23031 ft 332 kts 241°
2026-05-08 02:20 35.57651 -91.09354 22133 ft 331 kts 241°
2026-05-08 02:20 35.56351 -91.11672 21290 ft 328 kts 241°
2026-05-08 02:20 35.55060 -91.13972 20468 ft 326 kts 241°
2026-05-08 02:21 35.53775 -91.16259 19657 ft 324 kts 241°
2026-05-08 02:21 35.52500 -91.18530 18872 ft 323 kts 241°
2026-05-08 02:21 35.51245 -91.20764 18449 ft 311 kts 241°
2026-05-08 02:21 35.50041 -91.22903 18010 ft 299 kts 241°
2026-05-08 02:22 35.48880 -91.24966 17587 ft 287 kts 240°
2026-05-08 02:22 35.47764 -91.26950 17271 ft 280 kts 240°
2026-05-08 02:22 35.46667 -91.28904 16935 ft 277 kts 240°
2026-05-08 02:22 35.45577 -91.30843 16601 ft 275 kts 240°
2026-05-08 02:23 35.44497 -91.32769 16275 ft 273 kts 240°
2026-05-08 02:23 35.43423 -91.34682 15947 ft 272 kts 240°
2026-05-08 02:23 35.42354 -91.36583 15618 ft 270 kts 240°
2026-05-08 02:23 35.41307 -91.38445 15285 ft 269 kts 240°
2026-05-08 02:24 35.40242 -91.40337 14962 ft 268 kts 240°
2026-05-08 02:24 35.39184 -91.42214 14641 ft 267 kts 240°
2026-05-08 02:24 35.38129 -91.44084 14314 ft 267 kts 240°
2026-05-08 02:24 35.37062 -91.45973 13999 ft 266 kts 240°
2026-05-08 02:25 35.36022 -91.47813 13651 ft 266 kts 240°
2026-05-08 02:25 35.34973 -91.49668 13320 ft 264 kts 240°
2026-05-08 02:25 35.33928 -91.51513 13000 ft 263 kts 240°
2026-05-08 02:25 35.32891 -91.53346 12673 ft 261 kts 240°
2026-05-08 02:26 35.31855 -91.55173 12363 ft 261 kts 240°
2026-05-08 02:26 35.30826 -91.56991 12045 ft 260 kts 240°
2026-05-08 02:26 35.29795 -91.58811 11729 ft 260 kts 240°
2026-05-08 02:26 35.28769 -91.60622 11412 ft 259 kts 240°
2026-05-08 02:27 35.27742 -91.62431 11102 ft 259 kts 240°
2026-05-08 02:27 35.26705 -91.64257 10878 ft 269 kts 240°
2026-05-08 02:27 35.25614 -91.66178 10701 ft 279 kts 239°
2026-05-08 02:27 35.24251 -91.67911 10459 ft 286 kts 225°
2026-05-08 02:28 35.22694 -91.69444 10209 ft 288 kts 223°
2026-05-08 02:28 35.21107 -91.70944 9977 ft 288 kts 223°
2026-05-08 02:28 35.19523 -91.72413 9838 ft 285 kts 222°
2026-05-08 02:28 35.17944 -91.73876 9706 ft 284 kts 223°
2026-05-08 02:29 35.16379 -91.75331 9487 ft 280 kts 223°
2026-05-08 02:29 35.14835 -91.76771 9147 ft 278 kts 222°
2026-05-08 02:29 35.13303 -91.78202 8806 ft 277 kts 222°
2026-05-08 02:29 35.11779 -91.79628 8467 ft 276 kts 222°
2026-05-08 02:30 35.10261 -91.81051 8123 ft 275 kts 221°
2026-05-08 02:30 35.08749 -91.82470 7781 ft 274 kts 221°
2026-05-08 02:30 35.07237 -91.83886 7441 ft 273 kts 221°
2026-05-08 02:30 35.05729 -91.85300 7099 ft 274 kts 221°
2026-05-08 02:31 35.04234 -91.86749 6802 ft 273 kts 222°
2026-05-08 02:31 35.02798 -91.88224 6532 ft 269 kts 223°
2026-05-08 02:31 35.01380 -91.89718 6191 ft 269 kts 224°
2026-05-08 02:31 34.99975 -91.91214 5846 ft 268 kts 223°
2026-05-08 02:32 34.98573 -91.92704 5509 ft 267 kts 223°
2026-05-08 02:32 34.97174 -91.94183 5171 ft 266 kts 224°
2026-05-08 02:32 34.95779 -91.95653 4848 ft 264 kts 223°
2026-05-08 02:32 34.94409 -91.97090 4734 ft 254 kts 223°
2026-05-08 02:33 34.93098 -91.98462 4643 ft 244 kts 223°
2026-05-08 02:33 34.91835 -91.99781 4540 ft 234 kts 223°
2026-05-08 02:33 34.90631 -92.01037 4438 ft 222 kts 223°
2026-05-08 02:33 34.89486 -92.02211 4345 ft 209 kts 219°
2026-05-08 02:34 34.88387 -92.03278 4273 ft 194 kts 224°
2026-05-08 02:34 34.87446 -92.04377 4079 ft 181 kts 227°
2026-05-08 02:34 34.86596 -92.05444 3882 ft 167 kts 228°
2026-05-08 02:34 34.85846 -92.06399 3669 ft 150 kts 228°
2026-05-08 02:35 34.85162 -92.07274 3480 ft 135 kts 227°
2026-05-08 02:35 34.84527 -92.08088 3312 ft 131 kts 227°
2026-05-08 02:35 34.83901 -92.08891 3137 ft 130 kts 227°
2026-05-08 02:35 34.83279 -92.09689 2958 ft 130 kts 226°
2026-05-08 02:36 34.82659 -92.10483 2791 ft 129 kts 226°
2026-05-08 02:36 34.82041 -92.11276 2620 ft 129 kts 225°
2026-05-08 02:36 34.81423 -92.12068 2444 ft 129 kts 225°
2026-05-08 02:36 34.80804 -92.12861 2284 ft 129 kts 225°
2026-05-08 02:37 34.80186 -92.13653 2110 ft 129 kts 224°
2026-05-08 02:37 34.79564 -92.14449 1939 ft 130 kts 224°
2026-05-08 02:37 34.78944 -92.15243 1766 ft 130 kts 224°
2026-05-08 02:37 34.78324 -92.16037 1589 ft 129 kts 224°
2026-05-08 02:38 34.77705 -92.16830 1414 ft 129 kts 223°
2026-05-08 02:38 34.77087 -92.17620 1247 ft 129 kts 224°
2026-05-08 02:38 34.76470 -92.18409 1044 ft 129 kts 225°
2026-05-08 02:38 34.75862 -92.19195 849 ft 127 kts 225°
2026-05-08 02:39 34.75252 -92.19965 672 ft 126 kts 226°
2026-05-08 02:39 34.74658 -92.20739 531 ft 124 kts 225°
2026-05-08 02:39 34.74058 -92.21500 373 ft 125 kts 225°
2026-05-08 02:39 34.73472 -92.22249 268 ft 112 kts 226°
2026-05-08 02:40 34.73018 -92.22826 264 ft 71 kts 226°
2026-05-08 02:40 34.72756 -92.23159 265 ft 48 kts 226°
2026-05-08 02:40 34.72621 -92.23274 266 ft 13 kts 137°
2026-05-08 02:40 34.72591 -92.23179 267 ft 13 kts 55°
2026-05-08 02:41 34.72659 -92.23087 267 ft 16 kts 46°
2026-05-08 02:41 34.72745 -92.22979 267 ft 19 kts 46°
2026-05-08 02:41 34.72842 -92.22854 267 ft 22 kts 46°
2026-05-08 02:41 34.72954 -92.22712 267 ft 25 kts 46°
2026-05-08 02:42 34.73078 -92.22554 267 ft 27 kts 46°
2026-05-08 02:42 34.73148 -92.22448 267 ft 13 kts 77°
2026-05-08 02:42 34.73121 -92.22336 267 ft 15 kts 118°
2026-05-08 02:42 34.73079 -92.22205 267 ft 18 kts 110°
2026-05-08 02:43 34.73124 -92.22098 267 ft 17 kts 20°
2026-05-08 02:43 34.73194 -92.22049 267 ft 12 kts 61°
2026-05-08 02:43 34.73192 -92.21940 267 ft 9 kts 104°
2026-05-08 02:43 34.73166 -92.21865 267 ft 11 kts 132°
2026-05-08 02:44 34.73126 -92.21893 267 ft 8 kts 231°
2026-05-08 02:44 34.73113 -92.21912 267 ft 1 kts 230°
2026-05-08 02:44 34.73111 -92.21914 267 ft 0 kts 230°